Time,TemperatureF,DewpointF,PressureIn,WindDirection,WindDirectionDegrees,WindSpeedMPH,WindSpeedGustMPH,Humidity,HourlyPrecipIn,Conditions,Clouds,dailyrainin,SoftwareType,DateUTC
2013-07-07 00:02:00,76.0,65.1,29.76,South,172,2.0,4.0,69,0.00,,,0.00,Wunderground v.1.15,2013-07-07 05:02:00,
2013-07-07 00:08:00,76.0,65.5,29.76,SE,130,2.0,4.0,70,0.00,,,0.00,Wunderground v.1.15,2013-07-07 05:08:00,
2013-07-07 00:14:00,76.0,65.5,29.76,SSE,158,2.0,6.0,70,0.00,,,0.00,Wunderground v.1.15,2013-07-07 05:14:00,
2013-07-07 00:20:00,76.0,65.5,29.76,SSE,162,2.0,3.0,70,0.00,,,0.00,Wunderground v.1.15,2013-07-07 05:20:00,
2013-07-07 00:26:00,76.1,65.2,29.76,East,82,2.0,4.0,69,0.00,,,0.00,Wunderground v.1.15,2013-07-07 05:26:00,
2013-07-07 00:32:00,76.1,65.2,29.76,SSW,195,2.0,5.0,69,0.00,,,0.00,Wunderground v.1.15,2013-07-07 05:32:00,
2013-07-07 00:37:00,76.2,65.3,29.76,SSE,153,2.0,5.0,69,0.00,,,0.00,Wunderground v.1.15,2013-07-07 05:37:00,
2013-07-07 00:43:00,76.1,65.2,29.76,ESE,110,2.0,3.0,69,0.00,,,0.00,Wunderground v.1.15,2013-07-07 05:43:00,
2013-07-07 00:49:00,76.1,65.2,29.76,East,91,1.0,4.0,69,0.00,,,0.00,Wunderground v.1.15,2013-07-07 05:49:00,
2013-07-07 00:55:00,76.1,65.2,29.76,SE,132,1.0,4.0,69,0.00,,,0.00,Wunderground v.1.15,2013-07-07 05:55:00,
2013-07-07 01:00:00,76.1,65.2,29.76,East,92,2.0,5.0,69,0.00,,,0.00,Wunderground v.1.15,2013-07-07 06:00:00,
2013-07-07 01:06:00,76.2,64.9,29.76,SE,138,2.0,6.0,68,0.00,,,0.00,Wunderground v.1.15,2013-07-07 06:06:00,
2013-07-07 01:12:00,76.3,64.5,29.76,South,186,3.0,4.0,67,0.00,,,0.00,Wunderground v.1.15,2013-07-07 06:12:00,
2013-07-07 01:18:00,76.3,65.0,29.76,SSW,203,3.0,4.0,68,0.00,,,0.00,Wunderground v.1.15,2013-07-07 06:18:00,
2013-07-07 01:24:00,76.2,64.4,29.76,SE,126,2.0,5.0,67,0.00,,,0.00,Wunderground v.1.15,2013-07-07 06:24:00,
2013-07-07 01:29:00,76.1,64.8,29.76,South,190,2.0,5.0,68,0.00,,,0.00,Wunderground v.1.15,2013-07-07 06:29:00,
2013-07-07 01:35:00,76.1,64.8,29.76,ESE,104,3.0,5.0,68,0.00,,,0.00,Wunderground v.1.15,2013-07-07 06:35:00,
2013-07-07 01:41:00,76.1,64.3,29.76,SSE,156,3.0,3.0,67,0.00,,,0.00,Wunderground v.1.15,2013-07-07 06:41:00,
2013-07-07 01:47:00,76.1,64.3,29.76,ESE,113,2.0,4.0,67,0.00,,,0.00,Wunderground v.1.15,2013-07-07 06:47:00,
2013-07-07 01:52:00,76.0,64.2,29.76,ESE,105,3.0,4.0,67,0.00,,,0.00,Wunderground v.1.15,2013-07-07 06:52:00,
2013-07-07 01:58:00,76.0,64.2,29.76,ESE,103,2.0,4.0,67,0.00,,,0.00,Wunderground v.1.15,2013-07-07 06:58:00,
2013-07-07 02:04:00,76.0,63.8,29.76,East,100,2.0,6.0,66,0.00,,,0.00,Wunderground v.1.15,2013-07-07 07:04:00,
2013-07-07 02:09:00,76.1,63.9,29.76,SE,146,3.0,6.0,66,0.00,,,0.00,Wunderground v.1.15,2013-07-07 07:09:00,
2013-07-07 02:15:00,76.0,63.8,29.76,ENE,69,3.0,6.0,66,0.00,,,0.00,Wunderground v.1.15,2013-07-07 07:15:00,
2013-07-07 02:21:00,76.0,63.8,29.76,NNE,18,3.0,3.0,66,0.00,,,0.00,Wunderground v.1.15,2013-07-07 07:21:00,
2013-07-07 02:27:00,76.1,63.5,29.75,SW,236,3.0,3.0,65,0.00,,,0.00,Wunderground v.1.15,2013-07-07 07:27:00,
2013-07-07 02:32:00,76.2,63.6,29.76,ESE,110,3.0,4.0,65,0.00,,,0.00,Wunderground v.1.15,2013-07-07 07:32:00,
2013-07-07 02:38:00,76.0,63.8,29.75,ESE,121,3.0,5.0,66,0.00,,,0.01,Wunderground v.1.15,2013-07-07 07:38:00,
2013-07-07 02:44:00,75.1,63.4,29.75,SSE,147,2.0,4.0,67,0.00,,,0.01,Wunderground v.1.15,2013-07-07 07:44:00,
2013-07-07 02:50:00,74.9,62.8,29.75,ESE,117,3.0,4.0,66,0.00,,,0.01,Wunderground v.1.15,2013-07-07 07:50:00,
2013-07-07 02:55:00,74.8,63.1,29.76,ESE,102,4.0,7.0,67,0.00,,,0.01,Wunderground v.1.15,2013-07-07 07:55:00,
2013-07-07 03:00:00,74.7,63.0,29.76,SE,142,4.0,4.0,67,0.00,,,0.01,Wunderground v.1.15,2013-07-07 08:00:00,
2013-07-07 03:06:00,74.3,63.1,29.76,ESE,105,3.0,5.0,68,0.00,,,0.01,Wunderground v.1.15,2013-07-07 08:06:00,
2013-07-07 03:11:00,73.8,63.0,29.76,SE,129,3.0,7.0,69,0.00,,,0.02,Wunderground v.1.15,2013-07-07 08:11:00,
2013-07-07 03:17:00,73.4,63.0,29.76,ESE,110,3.0,7.0,70,0.00,,,0.02,Wunderground v.1.15,2013-07-07 08:17:00,
2013-07-07 03:23:00,73.3,62.9,29.76,East,87,3.0,6.0,70,0.00,,,0.02,Wunderground v.1.15,2013-07-07 08:23:00,
2013-07-07 03:29:00,73.4,62.6,29.76,SE,142,3.0,6.0,69,0.00,,,0.02,Wunderground v.1.15,2013-07-07 08:29:00,
2013-07-07 03:35:00,73.9,62.2,29.76,SSW,211,4.0,5.0,67,0.00,,,0.02,Wunderground v.1.15,2013-07-07 08:35:00,
2013-07-07 03:40:00,73.9,62.2,29.76,ESE,121,4.0,4.0,67,0.00,,,0.02,Wunderground v.1.15,2013-07-07 08:40:00,
2013-07-07 03:46:00,74.1,62.4,29.76,SSE,149,4.0,8.0,67,0.00,,,0.02,Wunderground v.1.15,2013-07-07 08:46:00,
2013-07-07 03:52:00,74.3,62.2,29.76,SSE,163,5.0,6.0,66,0.00,,,0.02,Wunderground v.1.15,2013-07-07 08:52:00,
2013-07-07 03:58:00,74.3,62.6,29.76,ESE,103,5.0,6.0,67,0.00,,,0.02,Wunderground v.1.15,2013-07-07 08:58:00,
2013-07-07 04:03:00,74.3,62.6,29.76,NE,50,4.0,4.0,67,0.00,,,0.02,Wunderground v.1.15,2013-07-07 09:03:00,
2013-07-07 04:09:00,74.2,62.5,29.76,SE,132,5.0,10.0,67,0.00,,,0.02,Wunderground v.1.15,2013-07-07 09:09:00,
2013-07-07 04:15:00,74.0,62.3,29.76,NNE,32,4.0,9.0,67,0.00,,,0.02,Wunderground v.1.15,2013-07-07 09:15:00,
2013-07-07 04:21:00,74.0,62.3,29.76,South,188,4.0,6.0,67,0.00,,,0.02,Wunderground v.1.15,2013-07-07 09:21:00,
2013-07-07 04:26:00,73.8,62.6,29.76,SE,135,4.0,8.0,68,0.00,,,0.02,Wunderground v.1.15,2013-07-07 09:26:00,
2013-07-07 04:32:00,73.5,62.7,29.76,South,187,4.0,6.0,69,0.00,,,0.02,Wunderground v.1.15,2013-07-07 09:32:00,
2013-07-07 04:37:00,73.3,62.9,29.76,SE,124,4.0,10.0,70,0.00,,,0.02,Wunderground v.1.15,2013-07-07 09:37:00,
2013-07-07 04:43:00,73.1,62.7,29.75,ESE,114,3.0,5.0,70,0.00,,,0.02,Wunderground v.1.15,2013-07-07 09:43:00,
2013-07-07 04:50:00,73.3,62.5,29.75,SE,138,3.0,3.0,69,0.00,,,0.02,Wunderground v.1.15,2013-07-07 09:50:00,
2013-07-07 04:56:00,73.5,62.7,29.75,SE,127,4.0,11.0,69,0.00,,,0.02,Wunderground v.1.15,2013-07-07 09:56:00,
2013-07-07 05:02:00,73.6,62.8,29.75,SW,226,5.0,8.0,69,0.00,,,0.02,Wunderground v.1.15,2013-07-07 10:02:00,
2013-07-07 05:08:00,73.7,62.5,29.75,ESE,108,4.0,8.0,68,0.00,,,0.02,Wunderground v.1.15,2013-07-07 10:08:00,
2013-07-07 05:14:00,73.8,62.6,29.75,NE,51,5.0,7.0,68,0.00,,,0.02,Wunderground v.1.15,2013-07-07 10:14:00,
2013-07-07 05:20:00,73.7,62.5,29.75,SW,229,4.0,4.0,68,0.00,,,0.02,Wunderground v.1.15,2013-07-07 10:20:00,
2013-07-07 05:26:00,73.7,62.5,29.75,ESE,104,4.0,6.0,68,0.00,,,0.02,Wunderground v.1.15,2013-07-07 10:26:00,
2013-07-07 05:31:00,73.7,62.9,29.75,South,186,4.0,6.0,69,0.00,,,0.02,Wunderground v.1.15,2013-07-07 10:31:00,
2013-07-07 05:37:00,73.5,63.1,29.75,SSW,195,4.0,6.0,70,0.00,,,0.02,Wunderground v.1.15,2013-07-07 10:37:00,
2013-07-07 05:43:00,73.4,63.0,29.75,SSE,156,5.0,6.0,70,0.00,,,0.02,Wunderground v.1.15,2013-07-07 10:43:00,
2013-07-07 05:49:00,73.1,63.1,29.75,ESE,105,5.0,7.0,71,0.00,,,0.02,Wunderground v.1.15,2013-07-07 10:49:00,
2013-07-07 05:54:00,73.0,63.0,29.75,SE,134,4.0,8.0,71,0.00,,,0.02,Wunderground v.1.15,2013-07-07 10:54:00,
2013-07-07 06:00:00,73.0,63.0,29.75,SSE,153,4.0,5.0,71,0.00,,,0.02,Wunderground v.1.15,2013-07-07 11:00:00,
2013-07-07 06:06:00,72.8,62.8,29.75,ENE,64,4.0,5.0,71,0.00,,,0.02,Wunderground v.1.15,2013-07-07 11:06:00,
2013-07-07 06:12:00,72.7,63.1,29.75,SE,146,4.0,4.0,72,0.00,,,0.02,Wunderground v.1.15,2013-07-07 11:12:00,
2013-07-07 06:18:00,72.5,63.0,29.75,SE,138,4.0,4.0,72,0.00,,,0.02,Wunderground v.1.15,2013-07-07 11:18:00,
2013-07-07 06:24:00,72.3,63.2,29.76,SSE,151,4.0,6.0,73,0.00,,,0.02,Wunderground v.1.15,2013-07-07 11:24:00,
2013-07-07 06:29:00,72.2,63.4,29.76,SE,138,3.0,6.0,74,0.00,,,0.02,Wunderground v.1.15,2013-07-07 11:29:00,
2013-07-07 06:35:00,72.0,63.3,29.76,East,89,3.0,6.0,74,0.00,,,0.02,Wunderground v.1.15,2013-07-07 11:35:00,
2013-07-07 06:41:00,71.8,63.4,29.75,East,94,3.0,3.0,75,0.00,,,0.02,Wunderground v.1.15,2013-07-07 11:41:00,
2013-07-07 06:47:00,71.7,63.4,29.75,SE,139,2.0,4.0,75,0.00,,,0.02,Wunderground v.1.15,2013-07-07 11:47:00,
2013-07-07 06:53:00,71.8,63.4,29.75,South,169,2.0,5.0,75,0.00,,,0.02,Wunderground v.1.15,2013-07-07 11:53:00,
2013-07-07 06:58:00,71.9,63.5,29.75,SSE,167,3.0,5.0,75,0.00,,,0.02,Wunderground v.1.15,2013-07-07 11:58:00,
2013-07-07 07:04:00,72.0,63.6,29.75,SSE,163,3.0,3.0,75,0.00,,,0.02,Wunderground v.1.15,2013-07-07 12:04:00,
2013-07-07 07:11:00,72.1,64.1,29.75,SE,143,2.0,2.0,76,0.00,,,0.02,Wunderground v.1.15,2013-07-07 12:11:00,
2013-07-07 07:17:00,72.1,64.1,29.75,ESE,120,3.0,4.0,76,0.00,,,0.02,Wunderground v.1.15,2013-07-07 12:17:00,
2013-07-07 07:23:00,72.3,64.3,29.75,ENE,76,3.0,3.0,76,0.00,,,0.02,Wunderground v.1.15,2013-07-07 12:23:00,
2013-07-07 07:28:00,72.5,64.1,29.75,South,177,3.0,5.0,75,0.00,,,0.02,Wunderground v.1.15,2013-07-07 12:28:00,
2013-07-07 07:34:00,72.8,64.4,29.76,East,82,3.0,3.0,75,0.00,,,0.02,Wunderground v.1.15,2013-07-07 12:34:00,
2013-07-07 07:40:00,73.1,64.7,29.76,SE,146,3.0,3.0,75,0.00,,,0.02,Wunderground v.1.15,2013-07-07 12:40:00,
2013-07-07 07:46:00,73.3,64.5,29.76,East,82,3.0,3.0,74,0.00,,,0.02,Wunderground v.1.15,2013-07-07 12:46:00,
2013-07-07 07:52:00,73.5,65.1,29.76,ESE,120,3.0,5.0,75,0.00,,,0.02,Wunderground v.1.15,2013-07-07 12:52:00,
2013-07-07 07:57:00,74.0,65.2,29.76,ESE,114,3.0,5.0,74,0.00,,,0.02,Wunderground v.1.15,2013-07-07 12:57:00,
2013-07-07 08:03:00,74.5,64.9,29.76,ENE,59,3.0,3.0,72,0.00,,,0.02,Wunderground v.1.15,2013-07-07 13:03:00,
2013-07-07 08:09:00,75.0,65.4,29.76,East,95,3.0,4.0,72,0.00,,,0.02,Wunderground v.1.15,2013-07-07 13:09:00,
2013-07-07 08:14:00,75.4,65.3,29.75,ESE,111,3.0,6.0,71,0.00,,,0.02,Wunderground v.1.15,2013-07-07 13:14:00,
2013-07-07 08:20:00,75.8,65.3,29.75,ESE,105,4.0,5.0,70,0.00,,,0.02,Wunderground v.1.15,2013-07-07 13:20:00,
2013-07-07 08:26:00,76.1,66.0,29.75,East,99,3.0,5.0,71,0.00,,,0.02,Wunderground v.1.15,2013-07-07 13:26:00,
2013-07-07 08:32:00,76.4,65.9,29.75,ESE,104,3.0,5.0,70,0.00,,,0.02,Wunderground v.1.15,2013-07-07 13:32:00,
2013-07-07 08:37:00,76.6,66.1,29.75,ENE,59,3.0,5.0,70,0.00,,,0.02,Wunderground v.1.15,2013-07-07 13:37:00,
2013-07-07 08:43:00,77.0,66.5,29.75,ESE,118,4.0,5.0,70,0.00,,,0.02,Wunderground v.1.15,2013-07-07 13:43:00,
2013-07-07 08:48:00,77.2,66.7,29.76,South,181,4.0,5.0,70,0.00,,,0.02,Wunderground v.1.15,2013-07-07 13:48:00,
2013-07-07 08:54:00,77.1,66.6,29.76,SSE,162,3.0,5.0,70,0.00,,,0.02,Wunderground v.1.15,2013-07-07 13:54:00,
2013-07-07 09:00:00,77.3,67.2,29.76,SE,142,3.0,3.0,71,0.00,,,0.02,Wunderground v.1.15,2013-07-07 14:00:00,
2013-07-07 09:06:00,78.0,67.4,29.76,East,86,3.0,8.0,70,0.00,,,0.02,Wunderground v.1.15,2013-07-07 14:06:00,
2013-07-07 09:11:00,78.6,67.2,29.76,South,177,3.0,3.0,68,0.00,,,0.02,Wunderground v.1.15,2013-07-07 14:11:00,
2013-07-07 09:17:00,79.3,67.8,29.76,ENE,70,3.0,6.0,68,0.00,,,0.02,Wunderground v.1.15,2013-07-07 14:17:00,
2013-07-07 09:23:00,79.9,68.4,29.75,SSE,153,3.0,3.0,68,0.00,,,0.02,Wunderground v.1.15,2013-07-07 14:23:00,
2013-07-07 09:29:00,80.3,68.3,29.75,South,172,4.0,5.0,67,0.00,,,0.02,Wunderground v.1.15,2013-07-07 14:29:00,
2013-07-07 09:35:00,80.7,67.8,29.75,South,186,4.0,8.0,65,0.00,,,0.02,Wunderground v.1.15,2013-07-07 14:35:00,
2013-07-07 09:41:00,81.3,68.4,29.76,South,172,4.0,4.0,65,0.00,,,0.02,Wunderground v.1.15,2013-07-07 14:41:00,
2013-07-07 09:47:00,81.7,68.3,29.76,West,281,3.0,8.0,64,0.00,,,0.02,Wunderground v.1.15,2013-07-07 14:47:00,
2013-07-07 09:53:00,82.1,68.7,29.76,SSE,167,3.0,4.0,64,0.00,,,0.02,Wunderground v.1.15,2013-07-07 14:53:00,
2013-07-07 09:58:00,82.5,70.0,29.76,SSW,198,3.0,5.0,66,0.00,,,0.02,Wunderground v.1.15,2013-07-07 14:58:00,
2013-07-07 10:04:00,82.8,69.4,29.76,South,179,3.0,9.0,64,0.00,,,0.02,Wunderground v.1.15,2013-07-07 15:04:00,
2013-07-07 10:10:00,83.1,68.3,29.76,East,84,4.0,4.0,61,0.00,,,0.02,Wunderground v.1.15,2013-07-07 15:10:00,
2013-07-07 10:16:00,83.5,69.6,29.76,East,100,4.0,6.0,63,0.00,,,0.02,Wunderground v.1.15,2013-07-07 15:16:00,
2013-07-07 10:21:00,83.7,70.2,29.76,SE,130,4.0,4.0,64,0.00,,,0.02,Wunderground v.1.15,2013-07-07 15:21:00,
2013-07-07 10:26:00,83.9,68.5,29.75,SSE,167,4.0,10.0,60,0.00,,,0.02,Wunderground v.1.15,2013-07-07 15:26:00,
2013-07-07 10:32:00,84.3,70.3,29.75,SSE,153,4.0,6.0,63,0.00,,,0.02,Wunderground v.1.15,2013-07-07 15:32:00,
2013-07-07 10:38:00,84.6,69.2,29.75,South,180,3.0,6.0,60,0.00,,,0.02,Wunderground v.1.15,2013-07-07 15:38:00,
2013-07-07 10:44:00,84.8,68.9,29.75,South,172,4.0,7.0,59,0.00,,,0.02,Wunderground v.1.15,2013-07-07 15:44:00,
2013-07-07 10:50:00,85.3,69.3,29.75,SE,132,4.0,9.0,59,0.00,,,0.02,Wunderground v.1.15,2013-07-07 15:50:00,
2013-07-07 10:55:00,85.7,69.2,29.75,ESE,121,4.0,9.0,58,0.00,,,0.02,Wunderground v.1.15,2013-07-07 15:55:00,
2013-07-07 11:00:00,85.4,68.9,29.75,NE,55,4.0,4.0,58,0.00,,,0.02,Wunderground v.1.15,2013-07-07 16:00:00,
2013-07-07 11:06:00,84.9,69.5,29.75,NW,321,4.0,9.0,60,0.00,,,0.02,Wunderground v.1.15,2013-07-07 16:06:00,
2013-07-07 11:12:00,85.6,69.6,29.75,South,176,4.0,7.0,59,0.00,,,0.02,Wunderground v.1.15,2013-07-07 16:12:00,
2013-07-07 11:18:00,85.1,68.7,29.75,NNE,18,3.0,7.0,58,0.00,,,0.02,Wunderground v.1.15,2013-07-07 16:18:00,
2013-07-07 11:24:00,84.8,68.9,29.75,SE,146,3.0,5.0,59,0.00,,,0.02,Wunderground v.1.15,2013-07-07 16:24:00,
2013-07-07 11:30:00,84.8,68.9,29.75,SSE,149,3.0,4.0,59,0.00,,,0.02,Wunderground v.1.15,2013-07-07 16:30:00,
2013-07-07 11:35:00,85.3,68.8,29.75,South,178,3.0,4.0,58,0.00,,,0.02,Wunderground v.1.15,2013-07-07 16:35:00,
2013-07-07 11:41:00,85.8,69.8,29.75,NNE,25,3.0,5.0,59,0.00,,,0.02,Wunderground v.1.15,2013-07-07 16:41:00,
2013-07-07 11:47:00,85.7,68.7,29.75,SSE,155,4.0,8.0,57,0.00,,,0.02,Wunderground v.1.15,2013-07-07 16:47:00,
2013-07-07 11:53:00,86.0,70.0,29.75,SE,136,4.0,5.0,59,0.00,,,0.02,Wunderground v.1.15,2013-07-07 16:53:00,
2013-07-07 11:59:00,87.0,68.9,29.75,South,180,3.0,5.0,55,0.00,,,0.02,Wunderground v.1.15,2013-07-07 16:59:00,
2013-07-07 12:04:00,88.1,72.5,29.75,SSW,212,3.0,5.0,60,0.00,,,0.02,Wunderground v.1.15,2013-07-07 17:04:00,
2013-07-07 12:10:00,88.3,69.0,29.75,SSE,153,4.0,4.0,53,0.00,,,0.02,Wunderground v.1.15,2013-07-07 17:10:00,
2013-07-07 12:16:00,89.1,72.9,29.75,SSW,197,3.0,4.0,59,0.00,,,0.02,Wunderground v.1.15,2013-07-07 17:16:00,
2013-07-07 12:22:00,88.8,68.9,29.75,SSE,160,4.0,6.0,52,0.00,,,0.02,Wunderground v.1.15,2013-07-07 17:22:00,
2013-07-07 12:28:00,88.1,69.4,29.75,SE,146,4.0,6.0,54,0.00,,,0.02,Wunderground v.1.15,2013-07-07 17:28:00,
2013-07-07 12:33:00,87.6,70.0,29.74,ENE,61,4.0,7.0,56,0.00,,,0.02,Wunderground v.1.15,2013-07-07 17:33:00,
2013-07-07 12:39:00,87.5,70.9,29.74,SSW,207,3.0,7.0,58,0.00,,,0.02,Wunderground v.1.15,2013-07-07 17:39:00,
2013-07-07 12:45:00,87.4,69.3,29.74,South,169,3.0,5.0,55,0.00,,,0.02,Wunderground v.1.15,2013-07-07 17:45:00,
2013-07-07 12:51:00,87.2,69.1,29.74,SE,127,3.0,4.0,55,0.00,,,0.02,Wunderground v.1.15,2013-07-07 17:51:00,
2013-07-07 12:56:00,87.3,69.7,29.74,South,173,4.0,5.0,56,0.00,,,0.02,Wunderground v.1.15,2013-07-07 17:56:00,
2013-07-07 13:02:00,87.8,71.2,29.74,SSE,149,3.0,6.0,58,0.00,,,0.02,Wunderground v.1.15,2013-07-07 18:02:00,
2013-07-07 13:08:00,88.6,73.4,29.74,SE,129,4.0,6.0,61,0.00,,,0.02,Wunderground v.1.15,2013-07-07 18:08:00,
2013-07-07 13:14:00,89.1,70.3,29.74,East,97,4.0,10.0,54,0.00,,,0.02,Wunderground v.1.15,2013-07-07 18:14:00,
2013-07-07 13:20:00,89.6,71.8,29.74,SE,139,4.0,4.0,56,0.00,,,0.02,Wunderground v.1.15,2013-07-07 18:20:00,
2013-07-07 13:26:00,90.0,70.0,29.74,South,174,3.0,7.0,52,0.00,,,0.02,Wunderground v.1.15,2013-07-07 18:26:00,
2013-07-07 13:32:00,90.1,70.7,29.74,SSE,162,4.0,4.0,53,0.00,,,0.02,Wunderground v.1.15,2013-07-07 18:32:00,
2013-07-07 13:38:00,90.6,71.1,29.74,South,172,3.0,4.0,53,0.00,,,0.02,Wunderground v.1.15,2013-07-07 18:38:00,
2013-07-07 13:44:00,90.8,70.2,29.74,NE,43,3.0,4.0,51,0.00,,,0.02,Wunderground v.1.15,2013-07-07 18:44:00,
2013-07-07 13:50:00,91.1,69.9,29.74,South,173,3.0,3.0,50,0.00,,,0.02,Wunderground v.1.15,2013-07-07 18:50:00,
2013-07-07 13:55:00,90.9,70.8,29.74,East,99,2.0,8.0,52,0.00,,,0.02,Wunderground v.1.15,2013-07-07 18:55:00,
2013-07-07 14:00:00,91.2,72.8,29.74,NE,50,2.0,3.0,55,0.00,,,0.02,Wunderground v.1.15,2013-07-07 19:00:00,
2013-07-07 14:06:00,91.3,70.1,29.74,East,81,3.0,8.0,50,0.00,,,0.02,Wunderground v.1.15,2013-07-07 19:06:00,
2013-07-07 14:12:00,91.4,74.0,29.74,ESE,108,4.0,4.0,57,0.00,,,0.02,Wunderground v.1.15,2013-07-07 19:12:00,
2013-07-07 14:17:00,91.8,72.8,29.74,NE,53,2.0,6.0,54,0.00,,,0.02,Wunderground v.1.15,2013-07-07 19:17:00,
2013-07-07 14:23:00,91.9,70.6,29.74,NNE,16,3.0,3.0,50,0.00,,,0.02,Wunderground v.1.15,2013-07-07 19:23:00,
2013-07-07 14:29:00,92.0,70.7,29.75,SSE,166,3.0,7.0,50,0.00,,,0.02,Wunderground v.1.15,2013-07-07 19:29:00,
2013-07-07 14:35:00,92.0,71.3,29.75,ENE,65,3.0,6.0,51,0.00,,,0.02,Wunderground v.1.15,2013-07-07 19:35:00,
2013-07-07 14:40:00,92.3,71.6,29.74,ESE,121,3.0,3.0,51,0.00,,,0.02,Wunderground v.1.15,2013-07-07 19:40:00,
2013-07-07 14:46:00,92.8,70.8,29.74,SE,134,2.0,5.0,49,0.00,,,0.02,Wunderground v.1.15,2013-07-07 19:46:00,
2013-07-07 14:52:00,92.9,71.5,29.74,ESE,112,3.0,8.0,50,0.00,,,0.02,Wunderground v.1.15,2013-07-07 19:52:00,
2013-07-07 14:58:00,92.6,72.4,29.74,West,278,3.0,8.0,52,0.00,,,0.02,Wunderground v.1.15,2013-07-07 19:58:00,
2013-07-07 15:04:00,92.7,71.3,29.74,SSE,158,2.0,4.0,50,0.00,,,0.02,Wunderground v.1.15,2013-07-07 20:04:00,
2013-07-07 15:10:00,92.3,70.4,29.74,ESE,113,3.0,5.0,49,0.00,,,0.02,Wunderground v.1.15,2013-07-07 20:10:00,
2013-07-07 15:15:00,92.5,71.7,29.74,ENE,76,3.0,5.0,51,0.00,,,0.02,Wunderground v.1.15,2013-07-07 20:15:00,
2013-07-07 15:21:00,92.5,71.7,29.74,SE,131,2.0,6.0,51,0.00,,,0.02,Wunderground v.1.15,2013-07-07 20:21:00,
2013-07-07 15:27:00,92.9,72.1,29.74,East,98,3.0,6.0,51,0.00,,,0.02,Wunderground v.1.15,2013-07-07 20:27:00,
2013-07-07 15:33:00,93.6,73.9,29.74,SSE,154,2.0,6.0,53,0.00,,,0.02,Wunderground v.1.15,2013-07-07 20:33:00,
2013-07-07 15:39:00,93.8,71.1,29.74,SE,125,2.0,6.0,48,0.00,,,0.02,Wunderground v.1.15,2013-07-07 20:39:00,
2013-07-07 15:44:00,93.7,71.0,29.74,SSE,167,2.0,4.0,48,0.00,,,0.02,Wunderground v.1.15,2013-07-07 20:44:00,
2013-07-07 15:50:00,93.5,70.9,29.74,WSW,249,3.0,3.0,48,0.00,,,0.02,Wunderground v.1.15,2013-07-07 20:50:00,
2013-07-07 15:56:00,93.7,74.0,29.74,SSE,155,3.0,4.0,53,0.00,,,0.02,Wunderground v.1.15,2013-07-07 20:56:00,
2013-07-07 16:02:00,93.6,71.6,29.74,ESE,114,3.0,5.0,49,0.00,,,0.02,Wunderground v.1.15,2013-07-07 21:02:00,
2013-07-07 16:07:00,93.9,74.7,29.74,SSW,195,3.0,5.0,54,0.00,,,0.02,Wunderground v.1.15,2013-07-07 21:07:00,
2013-07-07 16:13:00,94.1,71.4,29.73,SSE,156,2.0,4.0,48,0.00,,,0.02,Wunderground v.1.15,2013-07-07 21:13:00,
2013-07-07 16:19:00,93.5,70.9,29.73,NE,46,3.0,4.0,48,0.00,,,0.02,Wunderground v.1.15,2013-07-07 21:19:00,
2013-07-07 16:25:00,93.3,71.9,29.74,SE,133,2.0,4.0,50,0.00,,,0.02,Wunderground v.1.15,2013-07-07 21:25:00,
2013-07-07 16:31:00,93.7,71.7,29.73,ESE,103,2.0,5.0,49,0.00,,,0.02,Wunderground v.1.15,2013-07-07 21:31:00,
2013-07-07 16:37:00,93.9,71.8,29.73,ESE,120,2.0,5.0,49,0.00,,,0.02,Wunderground v.1.15,2013-07-07 21:37:00,
2013-07-07 16:43:00,94.2,73.3,29.73,ENE,73,2.0,4.0,51,0.00,,,0.02,Wunderground v.1.15,2013-07-07 21:43:00,
2013-07-07 16:49:00,94.1,72.6,29.73,East,101,3.0,4.0,50,0.00,,,0.02,Wunderground v.1.15,2013-07-07 21:49:00,
2013-07-07 16:54:00,94.0,73.1,29.73,ESE,106,3.0,5.0,51,0.00,,,0.02,Wunderground v.1.15,2013-07-07 21:54:00,
2013-07-07 17:00:00,93.9,71.8,29.73,East,93,3.0,3.0,49,0.00,,,0.02,Wunderground v.1.15,2013-07-07 22:00:00,
2013-07-07 17:06:00,94.0,72.5,29.73,SE,146,2.0,3.0,50,0.00,,,0.02,Wunderground v.1.15,2013-07-07 22:06:00,
2013-07-07 17:11:00,93.7,72.3,29.73,SE,146,3.0,3.0,50,0.00,,,0.02,Wunderground v.1.15,2013-07-07 22:11:00,
2013-07-07 17:17:00,93.8,70.5,29.73,ESE,103,3.0,3.0,47,0.00,,,0.02,Wunderground v.1.15,2013-07-07 22:17:00,
2013-07-07 17:23:00,93.4,71.4,29.72,SE,132,3.0,5.0,49,0.00,,,0.02,Wunderground v.1.15,2013-07-07 22:23:00,
2013-07-07 17:28:00,93.4,71.4,29.72,ESE,109,3.0,7.0,49,0.00,,,0.02,Wunderground v.1.15,2013-07-07 22:28:00,
2013-07-07 17:34:00,93.3,71.9,29.72,ESE,121,3.0,4.0,50,0.00,,,0.02,Wunderground v.1.15,2013-07-07 22:34:00,
2013-07-07 17:40:00,93.1,70.5,29.72,NNE,30,4.0,4.0,48,0.00,,,0.02,Wunderground v.1.15,2013-07-07 22:40:00,
2013-07-07 17:45:00,92.9,70.9,29.72,East,93,4.0,4.0,49,0.00,,,0.02,Wunderground v.1.15,2013-07-07 22:45:00,
2013-07-07 17:51:00,93.1,72.3,29.72,East,81,3.0,4.0,51,0.00,,,0.02,Wunderground v.1.15,2013-07-07 22:51:00,
2013-07-07 17:57:00,93.1,72.3,29.72,East,84,3.0,6.0,51,0.00,,,0.02,Wunderground v.1.15,2013-07-07 22:57:00,
2013-07-07 18:03:00,93.1,72.9,29.72,SE,127,3.0,7.0,52,0.00,,,0.02,Wunderground v.1.15,2013-07-07 23:03:00,
2013-07-07 18:09:00,93.1,72.9,29.72,SE,124,3.0,7.0,52,0.00,,,0.02,Wunderground v.1.15,2013-07-07 23:09:00,
2013-07-07 18:14:00,92.9,71.5,29.71,SE,143,3.0,5.0,50,0.00,,,0.02,Wunderground v.1.15,2013-07-07 23:14:00,
2013-07-07 18:20:00,93.0,72.2,29.71,SE,133,2.0,2.0,51,0.00,,,0.02,Wunderground v.1.15,2013-07-07 23:20:00,
2013-07-07 18:26:00,92.9,73.2,29.71,SSE,161,2.0,2.0,53,0.00,,,0.02,Wunderground v.1.15,2013-07-07 23:26:00,
2013-07-07 18:31:00,92.7,72.5,29.71,SE,131,2.0,2.0,52,0.00,,,0.02,Wunderground v.1.15,2013-07-07 23:31:00,
2013-07-07 18:37:00,92.8,72.0,29.71,SSE,150,2.0,4.0,51,0.00,,,0.02,Wunderground v.1.15,2013-07-07 23:37:00,
2013-07-07 18:43:00,93.0,73.3,29.71,ESE,113,1.0,2.0,53,0.00,,,0.02,Wunderground v.1.15,2013-07-07 23:43:00,
2013-07-07 18:49:00,93.1,72.3,29.71,East,101,1.0,2.0,51,0.00,,,0.02,Wunderground v.1.15,2013-07-07 23:49:00,
2013-07-07 18:55:00,93.1,72.9,29.70,ESE,118,1.0,1.0,52,0.00,,,0.02,Wunderground v.1.15,2013-07-07 23:55:00,
2013-07-07 19:00:00,93.1,72.9,29.70,SE,140,1.0,1.0,52,0.00,,,0.02,Wunderground v.1.15,2013-07-08 00:00:00,
2013-07-07 19:06:00,92.8,73.7,29.70,SE,141,1.0,4.0,54,0.00,,,0.02,Wunderground v.1.15,2013-07-08 00:06:00,
2013-07-07 19:12:00,92.4,73.3,29.70,SE,128,1.0,2.0,54,0.00,,,0.02,Wunderground v.1.15,2013-07-08 00:12:00,
2013-07-07 19:18:00,92.2,73.2,29.70,ESE,115,1.0,2.0,54,0.00,,,0.02,Wunderground v.1.15,2013-07-08 00:18:00,
2013-07-07 19:24:00,92.0,74.1,29.70,SSE,149,1.0,2.0,56,0.00,,,0.02,Wunderground v.1.15,2013-07-08 00:24:00,
2013-07-07 19:29:00,91.7,73.8,29.70,SE,139,1.0,2.0,56,0.00,,,0.02,Wunderground v.1.15,2013-07-08 00:29:00,
2013-07-07 19:35:00,91.3,73.4,29.70,ESE,113,1.0,2.0,56,0.00,,,0.02,Wunderground v.1.15,2013-07-08 00:35:00,
2013-07-07 19:41:00,91.0,73.7,29.70,SE,129,1.0,1.0,57,0.00,,,0.02,Wunderground v.1.15,2013-07-08 00:41:00,
2013-07-07 19:47:00,90.9,73.0,29.70,ENE,58,1.0,3.0,56,0.00,,,0.02,Wunderground v.1.15,2013-07-08 00:47:00,
2013-07-07 19:53:00,90.5,72.7,29.70,SE,133,1.0,1.0,56,0.00,,,0.02,Wunderground v.1.15,2013-07-08 00:53:00,
2013-07-07 19:59:00,90.0,71.7,29.70,East,85,1.0,2.0,55,0.00,,,0.02,Wunderground v.1.15,2013-07-08 00:59:00,
2013-07-07 20:04:00,89.6,71.8,29.70,SSE,156,1.0,3.0,56,0.00,,,0.02,Wunderground v.1.15,2013-07-08 01:04:00,
2013-07-07 20:10:00,88.8,70.5,29.70,East,79,1.0,2.0,55,0.00,,,0.02,Wunderground v.1.15,2013-07-08 01:10:00,
2013-07-07 20:16:00,88.0,70.9,29.71,East,90,1.0,2.0,57,0.00,,,0.02,Wunderground v.1.15,2013-07-08 01:16:00,
2013-07-07 20:22:00,87.3,70.7,29.71,SE,136,1.0,1.0,58,0.00,,,0.02,Wunderground v.1.15,2013-07-08 01:22:00,
2013-07-07 20:28:00,86.9,70.3,29.72,SE,139,1.0,3.0,58,0.00,,,0.02,Wunderground v.1.15,2013-07-08 01:28:00,
2013-07-07 20:33:00,86.6,70.6,29.72,SE,132,0.0,1.0,59,0.00,,,0.02,Wunderground v.1.15,2013-07-08 01:33:00,
2013-07-07 20:39:00,86.0,70.5,29.72,SE,128,0.0,1.0,60,0.00,,,0.02,Wunderground v.1.15,2013-07-08 01:39:00,
2013-07-07 20:46:00,85.3,70.3,29.73,ENE,70,0.0,2.0,61,0.00,,,0.02,Wunderground v.1.15,2013-07-08 01:46:00,
2013-07-07 20:52:00,84.9,69.9,29.73,ENE,76,1.0,1.0,61,0.00,,,0.02,Wunderground v.1.15,2013-07-08 01:52:00,
2013-07-07 20:58:00,84.6,70.1,29.73,SE,138,1.0,1.0,62,0.00,,,0.02,Wunderground v.1.15,2013-07-08 01:58:00,
2013-07-07 21:03:00,84.4,69.5,29.73,SE,127,0.0,1.0,61,0.00,,,0.02,Wunderground v.1.15,2013-07-08 02:03:00,
2013-07-07 21:09:00,84.2,69.8,29.74,SE,129,0.0,1.0,62,0.00,,,0.02,Wunderground v.1.15,2013-07-08 02:09:00,
2013-07-07 21:15:00,84.2,69.8,29.74,SE,128,1.0,3.0,62,0.00,,,0.02,Wunderground v.1.15,2013-07-08 02:15:00,
2013-07-07 21:21:00,84.1,69.7,29.75,NNE,30,1.0,1.0,62,0.00,,,0.02,Wunderground v.1.15,2013-07-08 02:21:00,
2013-07-07 21:27:00,84.1,69.7,29.76,ESE,109,0.0,1.0,62,0.00,,,0.02,Wunderground v.1.15,2013-07-08 02:27:00,
2013-07-07 21:34:00,84.1,69.7,29.76,ENE,67,1.0,2.0,62,0.00,,,0.02,Wunderground v.1.15,2013-07-08 02:34:00,
2013-07-07 21:40:00,84.2,69.8,29.75,ENE,73,1.0,1.0,62,0.00,,,0.02,Wunderground v.1.15,2013-07-08 02:40:00,
2013-07-07 21:46:00,84.3,69.9,29.75,SE,127,1.0,4.0,62,0.00,,,0.02,Wunderground v.1.15,2013-07-08 02:46:00,
2013-07-07 21:51:00,84.2,69.8,29.75,SE,146,1.0,1.0,62,0.00,,,0.02,Wunderground v.1.15,2013-07-08 02:51:00,
2013-07-07 21:57:00,84.3,69.9,29.76,ESE,107,2.0,5.0,62,0.00,,,0.02,Wunderground v.1.15,2013-07-08 02:57:00,
2013-07-07 22:03:00,84.4,70.0,29.76,ENE,71,2.0,2.0,62,0.00,,,0.02,Wunderground v.1.15,2013-07-08 03:03:00,
2013-07-07 22:09:00,84.2,69.8,29.76,SE,136,1.0,2.0,62,0.00,,,0.02,Wunderground v.1.15,2013-07-08 03:09:00,
2013-07-07 22:14:00,84.1,69.7,29.76,East,101,1.0,4.0,62,0.00,,,0.02,Wunderground v.1.15,2013-07-08 03:14:00,
2013-07-07 22:20:00,83.9,69.5,29.76,NNE,23,2.0,5.0,62,0.00,,,0.02,Wunderground v.1.15,2013-07-08 03:20:00,
2013-07-07 22:25:00,83.9,69.5,29.76,SE,136,2.0,7.0,62,0.00,,,0.02,Wunderground v.1.15,2013-07-08 03:25:00,
2013-07-07 22:31:00,83.9,70.0,29.77,SE,141,2.0,3.0,63,0.00,,,0.02,Wunderground v.1.15,2013-07-08 03:31:00,
2013-07-07 22:37:00,83.7,69.8,29.77,SE,126,2.0,3.0,63,0.00,,,0.02,Wunderground v.1.15,2013-07-08 03:37:00,
2013-07-07 22:43:00,83.5,69.6,29.78,SE,125,1.0,2.0,63,0.00,,,0.02,Wunderground v.1.15,2013-07-08 03:43:00,
2013-07-07 22:49:00,83.3,69.4,29.78,South,177,1.0,4.0,63,0.00,,,0.02,Wunderground v.1.15,2013-07-08 03:49:00,
2013-07-07 22:55:00,83.1,69.7,29.78,ESE,111,2.0,3.0,64,0.00,,,0.02,Wunderground v.1.15,2013-07-08 03:55:00,
2013-07-07 23:01:00,83.0,69.6,29.78,SE,141,1.0,1.0,64,0.00,,,0.02,Wunderground v.1.15,2013-07-08 04:01:00,
2013-07-07 23:02:00,82.9,69.5,29.78,ENE,63,1.0,2.0,64,0.00,,,0.02,Wunderground v.1.15,2013-07-08 04:02:00,
2013-07-07 23:03:00,82.9,69.5,29.78,SE,136,1.0,2.0,64,0.00,,,0.02,Wunderground v.1.15,2013-07-08 04:03:00,
2013-07-07 23:05:00,82.8,69.4,29.78,SE,145,1.0,2.0,64,0.00,,,0.02,Wunderground v.1.15,2013-07-08 04:05:00,
2013-07-07 23:10:00,82.6,69.6,29.78,South,172,1.0,1.0,65,0.00,,,0.02,Wunderground v.1.15,2013-07-08 04:10:00,
2013-07-07 23:16:00,82.5,69.5,29.78,ESE,117,1.0,2.0,65,0.00,,,0.02,Wunderground v.1.15,2013-07-08 04:16:00,
2013-07-07 23:22:00,82.4,69.4,29.78,ESE,118,1.0,1.0,65,0.00,,,0.02,Wunderground v.1.15,2013-07-08 04:22:00,
2013-07-07 23:28:00,82.2,69.3,29.78,ESE,116,1.0,3.0,65,0.00,,,0.02,Wunderground v.1.15,2013-07-08 04:28:00,
2013-07-07 23:34:00,81.9,69.4,29.78,SW,232,1.0,1.0,66,0.00,,,0.02,Wunderground v.1.15,2013-07-08 04:34:00,
2013-07-07 23:39:00,81.6,69.1,29.78,ENE,76,1.0,2.0,66,0.00,,,0.02,Wunderground v.1.15,2013-07-08 04:39:00,
2013-07-07 23:45:00,81.5,69.0,29.79,ESE,121,1.0,2.0,66,0.00,,,0.02,Wunderground v.1.15,2013-07-08 04:45:00,
2013-07-07 23:51:00,81.4,69.4,29.79,ESE,113,1.0,2.0,67,0.00,,,0.02,Wunderground v.1.15,2013-07-08 04:51:00,
2013-07-07 23:57:00,81.3,69.3,29.79,ESE,121,1.0,2.0,67,0.00,,,0.02,Wunderground v.1.15,2013-07-08 04:57:00,